Overview Statistics Trail Chart Weather Telemetry Raw packets
 

This is the latest recevied weather packets stored in our database for station/object BG5HLN-13. If no packets are shown the sender has not sent any weather packets the latest 10 day(s).

<< 30 31 32 33 34 35 36 >>
Time Temp. Humidity Pressure Rain* Wind** Luminosity Snow
1788156995 37.22° C 72% 1002.9 hPa 37.08 mm - - -
1788156395 37.78° C 71% 1003 hPa 36.83 mm - - -
1788155795 38.33° C 71% 1003 hPa 44.7 mm - - -
1788155194 38.89° C 69% 1003.1 hPa 26.42 mm - - -
1788154594 39.44° C 66% 1003.1 hPa 24.89 mm - - -
1788153995 39.44° C 65% 1003.1 hPa 34.54 mm - - -
1788153394 38.89° C 65% 1003.2 hPa 49.78 mm - - -
1788152795 39.44° C 66% 1003.2 hPa 82.8 mm - - -
1788152194 38.89° C 67% 1003.3 hPa 76.2 mm - - -
1788151594 38.89° C 66% 1003.3 hPa 69.85 mm - - -
1788150994 38.33° C 67% 1003.4 hPa 69.6 mm - - -
1788150395 38.33° C 68% 1003.5 hPa 58.67 mm - - -
1788149795 37.78° C 69% 1003.6 hPa 35.56 mm - - -
1788149194 37.78° C 70% 1003.6 hPa 1.78 mm - - -
1788148594 37.22° C 71% 1003.7 hPa 0.25 mm - - -
1788147995 37.22° C 70% 1003.8 hPa 0.25 mm - - -
1788147394 36.67° C 71% 1003.8 hPa 0.25 mm - - -
1788146794 36.11° C 72% 1003.8 hPa 0.25 mm - - -
1788146194 35° C 73% 1004 hPa 0 mm - - -
1788145594 34.44° C 75% 1004 hPa 0 mm - - -
1788144994 33.89° C 78% 1004.1 hPa 0 mm - - -
1788144394 33.89° C 79% 1004 hPa 0 mm - - -
1788143793 33.89° C 79% 1004.1 hPa 0 mm - - -
1788143194 33.89° C 79% 1004.1 hPa 0 mm - - -
1788142594 33.33° C 79% 1004.2 hPa 0 mm - - -

* Rain latest hour (hover to see other rain measurements)
** Current wind speed in m/s (hover to see current wind gust speed)